Vorticity
21 29 27 17 12 15 12 4 2 3 2 6 10 9 13 18 12 7 8 8 10 15 14 12 7 3 5 6 11 16 12 8 13 16 14 25 44 32 2 4 12 1 -3 2 12 21 22 26 33 23 13 12 16 20 17 11 13 11 11 17 17 13 14 15 13 9 11 18 19 13 11 11 11 16 18 13 11 14 7 2 4 -2 -4 9 11 1 3
20 28 29 19 11 14 14 6 2 3 2 4 10 10 8 11 13 12 10 7 8 12 14 13 8 5 8 10 12 17 15 6 11 18 14 24 43 25 0 11 12 -5 3 9 10 28 32 22 26 26 15 14 16 16 12 11 12 11 11 14 15 14 15 16 12 7 9 18 17 11 9 10 10 13 17 15 12 13 8 -4 -0 9 -0 -3 8 7 2
18 26 30 21 11 13 15 8 3 3 3 4 9 12 10 7 10 13 12 9 8 9 9 11 10 9 12 15 12 15 17 13 14 17 15 21 30 18 2 7 4 -3 8 15 13 22 23 17 24 28 19 16 17 13 8 10 13 12 11 11 11 15 18 16 14 8 5 10 10 7 8 7 9 13 16 17 12 9 9 -4 -8 10 15 4 1 3 5
18 25 31 24 11 11 16 11 3 2 4 4 7 12 12 9 11 14 12 11 10 8 6 9 10 8 12 15 12 14 16 16 14 10 17 27 19 4 2 8 13 13 15 18 17 17 20 18 20 26 22 13 14 16 12 10 9 6 10 9 3 9 14 11 13 12 9 12 12 10 12 7 8 14 14 16 14 8 7 -0 -8 0 12 18 13 1 -1
17 24 31 26 13 10 15 12 5 3 4 4 6 11 10 8 10 15 16 12 11 8 5 9 10 6 7 9 11 17 17 13 14 12 18 27 13 -3 1 14 24 27 24 19 13 12 20 21 19 23 20 13 15 20 18 12 5 4 10 7 1 11 15 8 10 12 9 13 13 11 14 9 8 14 13 11 13 12 5 -2 -3 -2 -4 8 26 20 3
16 23 30 28 15 9 14 14 6 2 4 5 6 9 10 8 5 10 18 16 11 10 6 7 10 7 6 5 5 15 20 15 17 17 15 21 19 7 8 18 16 10 14 14 7 11 19 20 24 25 17 16 21 21 20 11 1 5 10 3 1 12 14 7 10 12 8 11 14 12 14 12 10 14 14 10 10 12 9 -2 -4 4 -3 -10 8 26 21
15 22 29 30 19 9 12 16 8 2 3 4 5 7 10 13 8 7 16 17 12 12 8 5 9 8 8 8 4 10 20 18 17 17 15 24 29 13 6 21 13 -9 2 16 10 16 16 6 17 27 20 19 20 18 15 3 -1 10 10 1 4 12 10 5 9 13 10 10 15 15 14 12 11 13 13 12 9 8 11 6 -2 3 7 -4 -8 9 26
14 22 28 30 22 11 11 16 10 2 3 3 5 7 8 13 13 9 15 15 11 13 10 4 7 8 8 11 8 8 14 15 14 15 14 21 28 11 1 20 16 -8 4 26 24 23 12 -2 17 34 25 17 16 16 8 -3 8 18 3 -4 8 11 8 5 6 11 10 9 14 16 13 12 12 14 14 11 10 9 9 9 4 2 7 6 -3 -4 9
13 21 28 29 25 13 9 18 13 2 3 5 4 5 8 13 13 10 16 17 10 11 14 9 6 8 12 13 10 10 15 15 12 14 14 8 1 -9 -6 14 15 -0 8 25 28 22 4 -3 23 37 25 14 15 16 2 -9 12 23 1 -3 11 11 6 3 2 7 8 10 15 12 10 11 8 14 20 13 8 13 10 1 1 4 5 7 6 1 3
13 21 27 28 27 16 8 17 17 4 -0 4 5 4 6 12 13 9 13 18 13 8 12 12 7 8 17 17 10 12 18 17 8 6 11 7 -4 -2 16 24 15 12 18 17 16 16 1 2 27 33 22 16 15 17 3 -14 3 20 7 1 10 13 11 7 4 7 6 8 12 8 8 10 5 10 22 18 10 13 12 1 -3 3 7 7 7 4 4
12 21 27 27 28 19 8 14 19 8 -1 1 6 5 3 10 15 11 8 12 16 12 10 13 9 6 14 16 9 11 18 19 14 6 4 8 9 20 37 29 8 13 21 6 4 13 3 7 30 28 17 17 12 11 5 -11 -5 12 8 0 2 6 10 7 3 4 4 5 9 9 7 7 8 11 17 19 16 13 11 4 -3 1 7 8 7 4 3
12 20 27 27 28 21 9 11 19 13 0 -1 5 5 3 7 14 15 9 6 12 16 13 13 9 5 11 13 9 11 14 14 16 12 3 2 8 21 38 32 10 13 19 6 8 17 3 3 26 30 25 19 3 2 12 4 -1 8 6 -5 -9 -0 13 13 2 -2 1 4 8 10 8 7 8 9 9 16 18 14 11 6 -2 -1 4 6 6 4 3
11 20 26 25 28 24 11 9 19 17 3 -2 2 5 4 6 11 15 13 7 9 15 16 15 11 6 10 13 9 10 15 13 13 13 9 7 16 30 41 33 13 12 18 11 12 16 4 2 20 34 35 14 -11 -0 21 13 7 16 14 4 6 16 22 18 8 4 6 10 11 10 11 10 6 4 6 13 16 13 12 9 3 0 2 6 6 2 1
11 20 26 24 27 26 14 8 16 19 8 -2 0 5 4 4 9 14 15 11 10 13 16 16 12 7 9 12 11 11 14 12 10 14 11 9 19 35 38 26 13 14 17 13 10 10 8 7 15 34 40 9 -20 -1 22 18 18 27 22 14 17 20 15 8 9 11 13 18 20 16 14 13 9 6 6 10 14 13 10 10 9 5 -2 -3 -2 -3 0
11 19 27 25 25 27 17 7 14 20 12 -0 -2 4 5 3 6 13 16 14 11 12 14 15 12 8 8 12 12 10 9 8 9 13 10 5 13 30 32 20 12 10 8 7 9 9 13 14 14 33 42 8 -21 -3 19 22 23 20 16 16 12 8 8 5 3 4 6 12 19 18 17 15 13 10 8 9 12 11 9 11 11 8 3 -2 -5 -8 -5
12 18 27 25 23 27 19 8 12 20 15 4 -2 1 5 4 4 12 17 16 14 14 16 17 14 8 7 12 11 6 7 11 11 9 11 14 18 23 26 23 16 8 4 6 8 7 13 15 17 36 40 2 -20 -2 14 18 17 4 3 15 11 3 6 4 2 3 4 8 12 14 16 15 10 7 8 13 15 9 8 13 12 11 15 15 13 12 6
12 18 27 26 22 27 21 9 11 19 16 7 -0 -1 4 4 3 10 17 18 14 13 15 19 16 8 7 12 11 7 9 11 7 6 18 29 21 10 16 28 23 9 5 9 8 6 12 14 18 38 36 -5 -20 1 7 7 13 5 -3 4 4 1 3 4 7 9 8 10 12 11 17 20 14 10 9 13 17 12 7 8 7 8 14 14 15 19 16
13 17 26 27 23 25 22 11 9 17 17 9 1 -1 3 4 3 8 17 21 15 9 11 17 17 10 8 10 9 10 11 7 4 11 22 27 15 2 12 28 27 16 13 15 10 5 11 14 17 35 35 0 -15 3 7 -0 4 6 3 2 -2 -1 3 5 8 8 7 12 10 5 12 17 12 14 17 16 16 13 8 6 5 4 5 5 7 10 12
14 18 24 27 24 24 22 13 8 15 18 11 3 1 2 4 4 6 15 24 20 10 10 16 18 12 8 9 11 11 9 6 9 17 22 20 13 8 11 18 22 21 19 21 21 14 12 14 15 26 32 9 -13 -7 4 3 -1 1 7 11 7 6 8 7 10 9 6 9 9 3 6 10 8 11 18 23 24 19 13 12 10 6 3 2 4 5 3
15 18 22 26 26 23 22 14 8 14 19 12 5 3 1 3 4 4 14 25 23 13 11 16 20 15 7 8 12 9 7 10 12 14 17 17 13 11 11 12 12 12 9 14 23 24 22 21 17 18 26 19 -0 -10 -8 -3 -3 -5 0 7 9 11 11 8 11 12 2 0 8 7 2 4 9 10 9 16 26 26 22 16 10 5 3 0 -0 5 7
15 19 20 25 27 24 22 15 8 12 19 14 7 4 2 3 3 3 14 24 20 11 11 16 21 17 8 7 11 9 8 12 10 5 7 11 10 12 18 17 9 4 6 11 15 17 25 34 28 19 19 21 16 9 3 -1 -0 -1 -4 -5 -6 -2 0 -1 -1 1 -0 1 9 12 6 1 6 10 9 9 14 21 25 25 20 14 10 6 2 -1 0
16 19 19 24 27 24 21 16 9 11 18 16 9 5 2 3 2 3 14 24 17 8 12 18 20 17 10 5 8 9 9 11 8 1 2 11 15 15 19 20 10 0 2 12 16 12 18 34 39 31 23 17 16 19 19 13 7 7 6 2 -4 -6 -6 -7 -10 -7 -0 6 7 6 6 4 2 5 8 7 7 9 12 19 25 27 24 24 24 18 8
16 19 18 22 27 25 21 16 10 10 16 17 11 5 2 2 2 2 12 23 18 7 9 19 21 18 11 5 6 9 9 10 9 2 3 15 19 13 11 13 12 6 2 8 16 14 11 22 36 37 31 25 18 17 21 20 15 14 16 15 12 10 8 7 6 5 6 9 7 2 3 7 7 4 2 3 5 7 5 5 11 17 20 22 25 28 27
16 19 19 21 26 26 22 17 11 9 15 17 13 8 3 2 2 2 8 20 21 9 6 17 24 19 10 5 6 8 7 9 10 7 7 13 12 7 7 6 5 9 10 7 13 15 7 9 20 25 26 29 25 19 19 19 15 14 18 17 14 15 17 16 15 12 8 7 10 9 5 4 5 6 4 3 4 6 7 6 4 6 9 12 13 17 22
15 19 20 21 25 26 22 17 12 9 12 18 16 10 5 1 1 3 5 14 22 15 8 16 24 18 9 6 5 6 6 7 9 10 10 10 9 12 15 9 2 5 10 10 13 14 10 8 10 11 13 17 20 19 17 15 14 13 15 16 15 14 15 15 13 13 13 10 10 13 13 9 7 8 10 9 6 3 2 2 2 3 4 7 11 14 15
15 20 22 20 23 26 22 17 13 9 10 17 17 12 6 1 1 3 4 8 19 20 12 14 20 17 12 9 6 4 6 6 7 8 7 7 12 19 16 9 4 4 7 12 11 8 11 13 8 3 6 7 9 13 15 17 22 21 18 20 23 19 16 14 12 14 19 20 18 18 19 19 18 15 13 12 9 3 1 2 6 8 9 8 8 9 13
15 20 23 21 21 24 23 18 14 9 9 16 18 14 8 3 0 3 3 4 14 20 15 12 17 16 13 12 9 4 4 6 7 8 5 3 10 18 13 6 7 11 12 12 7 4 11 13 4 4 13 14 9 12 14 13 17 20 20 22 23 22 19 15 12 13 17 19 17 15 13 16 19 17 16 18 17 13 13 13 14 14 13 11 10 8 9
15 20 24 21 20 23 23 19 15 10 8 14 19 15 9 5 1 1 3 4 10 19 18 14 16 16 11 12 13 8 3 4 6 6 5 3 6 12 11 5 8 16 17 9 2 4 14 16 7 5 15 20 14 10 9 9 8 11 14 14 13 15 19 16 11 13 17 16 15 15 13 13 14 12 12 17 20 21 21 17 15 15 15 15 16 15 11
16 21 24 22 19 21 22 19 16 12 7 11 20 17 10 7 3 0 3 5 7 16 22 15 10 14 14 11 13 12 7 5 6 5 6 6 4 7 10 8 8 15 18 10 1 1 11 20 16 7 10 20 20 10 7 9 7 2 6 14 14 12 14 16 12 9 10 12 13 15 14 11 9 8 8 10 13 17 19 16 12 10 10 13 17 17 13
16 20 24 22 18 20 22 19 16 14 8 9 19 19 12 9 5 0 2 5 4 14 25 19 7 12 17 12 11 14 12 8 7 6 7 8 6 4 8 10 9 12 15 12 6 2 6 16 18 10 9 17 19 13 11 12 7 -2 1 18 27 19 11 12 13 7 5 9 11 12 13 12 13 13 11 9 10 12 15 17 15 11 8 7 11 15 15
16 20 24 23 19 19 21 19 17 14 8 8 17 21 14 9 7 2 2 5 4 9 22 24 13 10 14 13 12 15 16 14 13 10 7 8 7 6 8 11 10 10 11 11 9 7 7 11 13 12 11 10 8 7 9 10 9 4 0 8 24 25 15 10 10 7 7 11 13 13 13 13 14 16 13 10 10 10 9 9 11 13 13 9 5 9 14
17 21 24 22 19 18 19 19 18 15 9 7 14 21 17 10 7 4 2 5 6 6 15 24 19 11 8 9 10 12 13 13 15 14 11 10 8 6 9 13 10 8 10 11 9 8 9 10 11 13 14 10 5 5 6 6 11 14 7 1 6 13 14 12 11 9 10 12 12 14 15 13 12 13 11 9 10 12 12 8 5 10 18 20 15 10 10
18 23 24 22 20 18 18 19 18 15 10 7 11 19 20 13 8 6 3 3 5 5 9 15 18 15 11 8 5 5 6 6 8 11 13 14 12 8 9 13 12 10 11 10 8 6 7 7 8 12 15 14 11 8 8 8 10 13 14 10 6 5 7 9 9 9 10 11 11 12 14 16 15 14 13 11 11 13 15 13 8 7 10 12 13 13 12
19 24 25 22 20 18 17 18 17 15 11 8 10 17 19 15 10 8 5 3 4 6 6 7 9 13 16 14 9 8 7 7 7 7 7 10 12 11 10 11 12 11 10 9 7 7 7 5 5 6 10 14 15 12 13 14 13 11 12 14 13 11 10 10 10 11 12 10 6 5 8 13 15 15 14 14 14 15 16 16 12 9 4 1 4 10 13
20 25 25 22 19 18 16 16 17 16 11 8 10 15 18 15 11 8 5 4 5 6 5 5 7 10 12 14 15 15 13 11 9 9 8 9 12 12 11 10 10 9 8 7 7 8 8 7 5 6 8 12 13 12 12 15 18 18 18 16 14 13 13 11 11 11 10 8 6 6 6 9 11 12 11 11 12 13 14 14 13 13 11 9 10 11 12
21 25 24 21 18 17 15 16 18 16 12 9 10 15 18 16 13 9 6 4 6 5 4 7 12 12 9 9 12 15 15 12 10 10 11 12 13 12 10 9 9 8 9 10 10 11 12 11 9 9 11 11 9 8 8 10 13 17 18 16 13 11 11 10 10 9 9 10 11 12 12 12 12 12 11 8 9 11 12 12 11 11 11 12 13 13 12
23 25 23 20 18 16 15 18 18 16 12 10 10 13 18 17 14 11 8 5 6 6 5 6 8 6 5 9 11 11 12 12 9 9 11 12 12 11 10 9 8 10 13 15 14 14 15 16 15 14 14 11 9 7 7 8 9 10 11 11 10 9 10 10 11 11 11 11 13 14 15 15 15 14 12 8 6 7 9 10 10 9 9 10 11 12 13
23 25 22 19 18 17 16 18 19 15 12 11 10 12 17 18 14 12 10 8 7 6 7 7 4 1 5 12 14 11 12 11 8 7 10 11 10 11 12 13 12 13 14 15 15 15 15 14 14 15 15 12 11 12 12 12 14 14 12 11 10 9 8 7 8 9 10 10 9 9 11 14 16 16 14 12 9 7 6 6 6 6 7 9 10 11 12
23 24 21 18 18 18 18 19 19 15 11 10 10 12 16 18 16 11 10 10 10 8 8 8 5 1 5 12 13 10 11 13 10 8 10 11 10 11 13 15 15 14 12 11 12 14 14 12 10 11 11 11 12 12 12 13 14 13 12 12 11 11 11 11 13 13 13 13 12 11 10 11 12 13 12 12 13 13 12 11 9 7 5 5 8 11 14
24 22 19 17 17 18 19 19 17 15 11 10 10 12 14 17 17 13 9 10 10 8 7 7 6 3 5 9 10 8 8 10 10 8 9 10 10 10 10 10 12 14 13 12 11 10 10 11 11 9 7 9 12 13 11 10 10 9 10 12 13 13 13 12 13 14 16 17 17 16 15 13 11 9 10 11 12 15 17 17 17 14 10 7 7 9 14
22 19 18 17 16 18 19 19 17 14 11 9 10 12 13 16 18 15 10 9 10 10 8 6 6 6 6 5 6 8 9 10 9 9 10 10 10 10 9 9 10 13 15 14 13 11 10 11 13 13 10 9 10 11 10 9 8 7 8 9 10 10 10 9 8 10 14 19 20 17 15 14 13 11 9 8 11 15 19 21 22 20 15 11 10 11 14
21 19 17 15 16 18 19 18 17 15 11 9 11 11 12 15 17 16 12 8 9 12 11 7 6 8 7 3 3 7 11 11 9 8 9 9 9 10 10 9 9 11 13 13 14 15 14 13 13 13 12 10 10 9 9 10 11 10 9 10 10 10 10 9 9 9 11 16 21 21 18 16 15 13 10 8 12 17 19 20 22 22 17 13 12 14 17
20 19 16 14 16 19 19 18 17 14 10 10 11 11 13 14 14 14 14 10 7 9 11 9 7 7 7 5 4 5 8 10 10 8 8 8 9 9 9 8 9 10 9 9 11 13 14 13 13 12 9 8 9 10 11 12 14 14 13 12 13 12 11 11 11 10 9 11 15 20 21 19 15 11 8 7 11 17 19 18 17 16 15 13 13 14 15
18 17 16 14 16 19 19 18 16 15 12 9 8 9 11 11 11 14 16 13 10 8 8 8 8 7 7 8 7 4 5 9 11 9 8 9 9 8 8 8 9 9 7 7 9 12 13 13 14 14 12 11 11 11 11 12 14 17 16 15 14 13 13 14 14 13 12 11 11 12 15 18 17 15 12 9 7 10 14 16 15 13 12 11 12 13 13
17 16 16 15 16 18 19 17 15 14 13 10 8 8 10 10 11 14 15 15 15 12 8 8 10 10 8 8 8 6 6 7 8 8 9 9 9 9 9 9 10 9 7 8 9 11 13 14 13 12 12 12 11 11 11 12 13 14 15 14 14 13 14 15 16 15 15 15 15 13 12 13 14 15 16 17 15 12 11 11 12 13 13 12 12 13 13
17 17 16 17 18 19 19 16 14 13 13 12 11 11 11 12 13 15 16 16 17 15 12 11 11 11 11 10 7 6 7 7 6 7 7 8 8 9 9 9 9 9 8 8 9 10 13 14 11 8 9 11 11 11 12 13 13 12 12 13 14 14 14 14 14 14 14 16 17 18 17 15 14 12 11 13 16 18 17 15 12 10 10 11 12 14 15
18 17 17 19 19 18 17 16 14 13 13 12 11 11 11 12 13 14 16 18 17 14 14 14 12 10 11 12 10 8 8 7 6 7 7 7 8 9 8 7 8 9 8 8 9 10 11 10 8 6 7 7 7 8 10 11 11 11 11 11 12 12 12 12 12 11 11 10 12 13 15 16 17 16 14 12 12 13 15 18 18 16 13 11 9 10 14
18 18 19 19 18 17 16 15 14 14 13 11 10 11 12 13 14 14 15 17 17 14 13 13 12 10 10 11 10 9 9 7 6 6 7 7 7 7 7 7 8 7 7 8 9 9 9 10 10 9 9 8 7 8 8 8 8 9 9 10 10 9 9 11 12 11 10 9 9 9 10 11 12 14 14 15 15 14 13 14 16 17 18 16 13 10 9
18 20 20 19 17 17 16 15 14 14 13 12 11 11 12 13 15 15 15 16 17 14 11 10 10 10 11 11 9 8 9 10 9 8 7 7 7 7 7 8 7 6 7 8 8 8 10 12 11 9 9 9 9 11 11 11 10 8 5 5 8 9 9 9 10 10 10 10 9 7 7 8 9 10 10 11 12 14 15 15 15 15 16 16 15 14 12
20 21 21 20 18 17 17 15 13 13 13 12 12 12 12 12 14 16 16 16 16 15 12 10 9 9 11 13 11 8 7 9 11 10 9 7 7 7 6 6 6 7 8 8 7 7 9 9 9 9 10 9 9 9 11 12 13 11 7 4 6 9 10 9 9 10 10 11 10 8 6 6 7 10 12 12 12 12 14 16 17 18 18 18 17 17 15
24 24 22 20 17 15 14 13 12 13 13 13 13 14 14 13 14 15 17 17 17 16 14 11 9 9 11 13 12 9 7 5 6 9 10 8 7 8 7 6 6 6 7 7 7 7 8 8 8 7 8 9 9 9 9 11 12 12 9 7 7 8 8 8 9 10 11 11 11 9 8 7 8 10 11 12 12 13 13 14 15 17 19 21 22 22 20
27 27 22 18 15 14 13 13 14 16 17 16 15 15 15 15 15 15 16 17 18 17 16 13 10 9 10 10 8 8 8 7 5 7 9 8 6 5 5 5 7 7 7 8 8 6 6 9 11 9 6 7 8 9 9 10 10 9 6 5 6 8 8 8 8 8 9 11 12 11 9 8 9 11 12 12 10 10 10 10 10 10 11 12 15 19 21
Height
5631 5627 5623 5620 5617 5614 5612 5611 5608 5605 5602 5598 5594 5590 5587 5584 5581 5578 5575 5572 5569 5566 5563 5559 5556 5554 5551 5547 5545 5542 5540 5537 5535 5533 5531 5529 5527 5526 5526 5526 5527 5529 5531 5533 5534 5534 5535 5537 5540 5543 5545 5548 5553 5558 5563 5567 5573 5579 5586 5592 5597 5601 5606 5611 5614 5618 5624 5630 5635 5640 5643 5646 5650 5655 5659 5662 5665 5669 5673 5677 5681 5684 5686 5689 5693 5697 5701
5631 5626 5622 5619 5616 5613 5612 5610 5608 5605 5602 5599 5595 5591 5587 5583 5581 5578 5575 5573 5570 5567 5564 5561 5558 5555 5552 5549 5547 5545 5542 5540 5538 5536 5534 5532 5531 5530 5530 5530 5531 5533 5534 5536 5536 5536 5537 5540 5542 5545 5547 5550 5554 5558 5562 5567 5574 5580 5586 5592 5598 5603 5608 5611 5613 5616 5621 5627 5631 5634 5638 5643 5648 5653 5657 5660 5664 5668 5673 5677 5680 5683 5685 5688 5692 5696 5700
5630 5625 5621 5618 5615 5612 5611 5609 5607 5605 5602 5599 5596 5592 5588 5584 5581 5578 5576 5573 5571 5568 5566 5563 5560 5557 5554 5551 5549 5547 5545 5543 5541 5539 5538 5536 5535 5534 5534 5534 5534 5536 5537 5538 5538 5539 5540 5542 5545 5547 5550 5553 5557 5560 5564 5569 5576 5582 5587 5592 5597 5602 5606 5609 5613 5616 5619 5622 5626 5631 5635 5640 5646 5650 5654 5658 5662 5666 5671 5675 5678 5680 5684 5687 5690 5695 5699
5629 5625 5620 5617 5614 5611 5610 5608 5606 5604 5602 5598 5595 5592 5590 5586 5582 5579 5576 5574 5572 5569 5566 5564 5562 5559 5556 5554 5552 5549 5547 5545 5543 5542 5541 5540 5539 5538 5538 5537 5537 5538 5539 5540 5541 5542 5543 5545 5547 5550 5553 5556 5560 5564 5568 5572 5578 5582 5586 5591 5595 5599 5603 5608 5613 5618 5622 5625 5629 5633 5636 5639 5643 5647 5652 5656 5660 5664 5669 5673 5676 5679 5683 5685 5689 5693 5697
5628 5624 5620 5616 5613 5610 5608 5607 5606 5604 5601 5598 5595 5592 5589 5586 5583 5580 5577 5574 5572 5569 5567 5565 5563 5560 5558 5556 5554 5552 5550 5548 5546 5545 5544 5543 5542 5541 5541 5541 5541 5541 5542 5543 5544 5545 5546 5548 5550 5553 5556 5559 5563 5568 5572 5575 5579 5583 5587 5592 5596 5599 5604 5609 5614 5618 5623 5628 5631 5634 5638 5641 5644 5647 5651 5655 5659 5663 5667 5671 5675 5678 5681 5684 5688 5691 5695
5627 5623 5619 5615 5612 5609 5607 5606 5605 5603 5601 5598 5595 5592 5588 5585 5582 5580 5577 5575 5573 5571 5569 5566 5564 5562 5559 5557 5556 5554 5552 5550 5549 5547 5546 5545 5545 5544 5545 5545 5544 5545 5546 5546 5547 5548 5549 5552 5555 5557 5559 5562 5566 5570 5574 5577 5581 5585 5589 5593 5597 5602 5606 5610 5615 5618 5622 5627 5632 5636 5639 5642 5645 5648 5651 5655 5658 5662 5666 5670 5674 5676 5680 5684 5687 5690 5694
5626 5622 5618 5615 5612 5609 5607 5605 5604 5603 5601 5598 5596 5593 5589 5586 5583 5580 5578 5576 5573 5571 5570 5568 5565 5563 5561 5559 5558 5556 5555 5553 5552 5550 5549 5548 5547 5547 5547 5548 5548 5548 5548 5548 5549 5550 5552 5555 5558 5559 5561 5564 5568 5571 5574 5579 5585 5588 5591 5595 5599 5603 5607 5610 5615 5618 5622 5626 5631 5635 5639 5642 5646 5649 5652 5655 5658 5661 5665 5670 5673 5675 5678 5682 5685 5688 5691
5625 5621 5617 5614 5611 5608 5606 5604 5603 5602 5600 5598 5595 5593 5591 5588 5585 5582 5579 5576 5574 5572 5571 5569 5567 5565 5563 5561 5559 5558 5557 5555 5554 5553 5552 5550 5550 5550 5550 5551 5551 5551 5550 5550 5552 5553 5556 5558 5559 5561 5564 5567 5569 5572 5576 5582 5587 5590 5593 5597 5600 5603 5607 5610 5614 5618 5622 5626 5630 5634 5638 5642 5645 5649 5652 5655 5658 5661 5665 5669 5672 5674 5678 5681 5684 5686 5689
5624 5620 5616 5612 5610 5607 5605 5603 5602 5601 5600 5598 5595 5593 5590 5588 5585 5582 5579 5577 5575 5573 5571 5570 5569 5567 5564 5563 5561 5559 5558 5557 5556 5555 5555 5554 5553 5553 5553 5553 5553 5553 5552 5553 5554 5556 5558 5560 5561 5563 5566 5570 5572 5575 5580 5585 5588 5592 5595 5599 5601 5604 5608 5611 5614 5618 5622 5625 5629 5634 5637 5641 5645 5648 5651 5654 5657 5660 5664 5668 5671 5674 5677 5680 5682 5685 5688
5623 5619 5615 5611 5609 5606 5604 5603 5602 5601 5600 5598 5595 5593 5590 5587 5584 5582 5580 5578 5575 5573 5572 5571 5570 5568 5566 5564 5562 5561 5560 5559 5558 5557 5556 5556 5555 5555 5555 5555 5555 5555 5555 5556 5557 5559 5560 5562 5563 5566 5569 5572 5575 5578 5583 5587 5590 5593 5597 5600 5602 5606 5610 5613 5616 5619 5622 5626 5629 5633 5636 5640 5643 5646 5649 5653 5656 5660 5663 5667 5670 5673 5676 5678 5681 5683 5686
5622 5618 5614 5610 5608 5605 5603 5602 5601 5600 5599 5598 5595 5593 5591 5588 5585 5583 5580 5578 5576 5574 5573 5572 5570 5569 5567 5566 5564 5562 5561 5560 5559 5559 5558 5558 5557 5556 5556 5556 5557 5557 5557 5558 5560 5561 5563 5564 5566 5568 5571 5574 5578 5582 5586 5590 5592 5595 5598 5601 5604 5607 5610 5614 5617 5619 5623 5626 5629 5632 5635 5639 5642 5645 5648 5651 5655 5659 5662 5665 5668 5671 5674 5676 5679 5682 5684
5621 5617 5613 5609 5607 5604 5602 5601 5600 5599 5599 5598 5595 5593 5591 5589 5587 5584 5581 5579 5577 5575 5574 5572 5571 5570 5568 5566 5565 5564 5563 5562 5561 5560 5560 5559 5558 5557 5557 5557 5558 5558 5559 5560 5562 5563 5565 5566 5568 5570 5573 5577 5581 5585 5589 5591 5593 5596 5599 5602 5605 5607 5611 5614 5617 5620 5623 5625 5628 5631 5635 5637 5641 5644 5646 5650 5654 5657 5661 5663 5666 5669 5672 5675 5678 5680 5683
5620 5616 5612 5608 5605 5603 5601 5600 5599 5598 5598 5597 5595 5593 5591 5589 5587 5584 5582 5579 5577 5576 5574 5573 5572 5571 5569 5567 5566 5565 5564 5563 5563 5562 5561 5560 5559 5558 5558 5558 5559 5560 5561 5562 5564 5565 5567 5569 5570 5571 5575 5580 5584 5587 5590 5592 5594 5596 5600 5603 5605 5608 5611 5614 5617 5620 5623 5625 5628 5631 5633 5636 5639 5642 5645 5649 5652 5656 5658 5661 5664 5668 5670 5673 5676 5679 5681
5619 5615 5611 5607 5604 5602 5600 5599 5598 5597 5597 5596 5595 5593 5591 5589 5587 5585 5582 5580 5578 5576 5575 5573 5572 5571 5570 5568 5567 5566 5565 5565 5564 5564 5563 5562 5560 5559 5559 5560 5561 5562 5563 5565 5566 5567 5569 5570 5571 5573 5577 5581 5584 5587 5589 5591 5593 5596 5599 5603 5606 5608 5611 5614 5617 5620 5622 5625 5628 5630 5633 5635 5638 5641 5644 5648 5651 5654 5657 5660 5663 5666 5669 5672 5675 5677 5679
5618 5614 5610 5606 5603 5601 5599 5598 5597 5596 5596 5596 5594 5593 5591 5589 5587 5585 5582 5580 5578 5576 5575 5574 5573 5572 5571 5570 5568 5568 5567 5566 5566 5565 5564 5563 5562 5561 5561 5562 5563 5565 5566 5567 5568 5570 5571 5571 5573 5575 5578 5581 5584 5586 5589 5591 5594 5596 5600 5604 5607 5609 5612 5614 5617 5620 5622 5624 5627 5629 5632 5635 5638 5641 5644 5647 5651 5653 5656 5659 5662 5664 5668 5671 5673 5676 5678
5616 5613 5609 5604 5602 5600 5598 5597 5596 5595 5595 5595 5594 5592 5590 5589 5587 5585 5583 5580 5578 5577 5575 5574 5574 5573 5572 5571 5570 5569 5568 5568 5568 5567 5566 5565 5564 5563 5563 5564 5565 5567 5568 5569 5571 5572 5573 5574 5575 5577 5580 5583 5585 5588 5590 5592 5595 5598 5601 5604 5608 5610 5612 5615 5617 5620 5622 5624 5627 5629 5632 5635 5638 5641 5644 5646 5650 5652 5655 5659 5661 5663 5666 5669 5672 5674 5676
5615 5612 5607 5603 5600 5599 5597 5596 5595 5594 5594 5594 5593 5592 5590 5588 5587 5585 5583 5580 5579 5577 5576 5575 5574 5574 5573 5572 5571 5570 5570 5569 5569 5568 5568 5566 5565 5565 5565 5566 5567 5568 5570 5571 5572 5573 5574 5576 5577 5579 5581 5584 5587 5590 5592 5594 5596 5600 5603 5605 5608 5611 5613 5615 5618 5619 5622 5624 5627 5629 5632 5635 5637 5640 5643 5646 5648 5651 5654 5657 5659 5661 5665 5667 5670 5672 5674
5614 5610 5606 5602 5599 5597 5596 5594 5593 5593 5593 5593 5592 5591 5590 5588 5586 5585 5583 5580 5578 5577 5576 5575 5575 5574 5574 5573 5572 5571 5571 5570 5570 5569 5569 5568 5568 5567 5567 5568 5568 5570 5571 5572 5574 5575 5576 5577 5579 5581 5583 5586 5588 5590 5593 5595 5597 5600 5603 5606 5608 5611 5614 5616 5617 5619 5622 5625 5627 5630 5632 5635 5637 5640 5642 5644 5646 5649 5652 5654 5656 5659 5663 5665 5668 5670 5672
5612 5609 5605 5601 5598 5596 5594 5593 5592 5592 5592 5592 5591 5591 5590 5588 5586 5584 5582 5580 5579 5577 5576 5576 5575 5575 5575 5574 5573 5573 5572 5572 5571 5571 5570 5570 5570 5570 5570 5570 5571 5571 5572 5574 5575 5576 5577 5579 5581 5582 5584 5586 5589 5591 5593 5596 5598 5601 5603 5606 5609 5611 5614 5616 5617 5619 5622 5625 5628 5630 5633 5635 5637 5639 5641 5643 5646 5648 5650 5652 5654 5657 5661 5663 5666 5668 5670
5611 5607 5603 5600 5597 5595 5593 5592 5591 5591 5591 5591 5590 5590 5589 5588 5586 5584 5582 5580 5579 5578 5577 5576 5575 5575 5575 5575 5575 5574 5574 5573 5572 5572 5572 5572 5572 5572 5572 5573 5573 5574 5575 5575 5576 5577 5578 5579 5581 5583 5585 5587 5589 5591 5593 5596 5599 5602 5604 5607 5609 5611 5613 5615 5617 5620 5623 5626 5628 5630 5632 5635 5637 5639 5641 5643 5645 5647 5648 5650 5652 5655 5658 5661 5664 5666 5668
5609 5605 5602 5598 5596 5593 5592 5590 5590 5589 5589 5589 5589 5589 5589 5587 5586 5584 5582 5580 5579 5578 5577 5576 5575 5575 5576 5576 5576 5575 5575 5574 5574 5574 5574 5574 5574 5574 5574 5575 5576 5576 5576 5577 5577 5578 5579 5580 5581 5583 5585 5587 5589 5591 5594 5596 5599 5602 5605 5607 5609 5611 5613 5615 5617 5620 5623 5626 5628 5630 5632 5634 5636 5638 5640 5643 5644 5646 5648 5650 5652 5654 5656 5659 5661 5664 5666
5607 5603 5600 5597 5594 5592 5590 5589 5588 5588 5588 5588 5588 5588 5588 5587 5586 5584 5583 5581 5579 5578 5577 5576 5576 5576 5576 5576 5576 5576 5576 5575 5575 5575 5575 5575 5575 5576 5576 5577 5577 5578 5578 5578 5578 5579 5579 5580 5581 5583 5585 5587 5590 5592 5594 5596 5598 5600 5603 5606 5608 5611 5612 5614 5617 5619 5622 5624 5626 5629 5631 5633 5635 5637 5639 5641 5643 5645 5647 5649 5651 5653 5654 5657 5659 5661 5664
5606 5602 5598 5595 5593 5591 5589 5588 5587 5587 5587 5587 5587 5587 5587 5587 5585 5584 5583 5581 5580 5579 5578 5577 5576 5576 5577 5577 5577 5577 5577 5577 5577 5577 5577 5577 5577 5577 5578 5578 5579 5579 5579 5579 5580 5580 5580 5581 5581 5583 5585 5587 5590 5592 5594 5596 5597 5600 5602 5605 5607 5609 5611 5613 5616 5618 5620 5623 5625 5627 5629 5631 5633 5635 5637 5639 5642 5644 5646 5648 5649 5651 5652 5654 5657 5659 5661
5604 5600 5596 5594 5591 5589 5588 5586 5586 5586 5586 5586 5586 5586 5586 5586 5585 5584 5583 5581 5580 5579 5578 5577 5577 5577 5577 5578 5578 5578 5578 5578 5578 5578 5579 5579 5579 5579 5579 5580 5580 5581 5581 5581 5581 5581 5582 5582 5583 5584 5586 5588 5590 5592 5594 5596 5598 5600 5602 5605 5607 5609 5611 5613 5615 5617 5620 5622 5624 5627 5629 5630 5632 5633 5635 5637 5640 5642 5644 5646 5647 5649 5650 5652 5654 5656 5658
5602 5598 5595 5592 5590 5588 5586 5585 5584 5584 5584 5585 5585 5585 5585 5585 5584 5584 5583 5581 5580 5578 5578 5577 5577 5577 5578 5578 5579 5579 5579 5579 5579 5579 5580 5580 5580 5580 5580 5581 5581 5582 5582 5582 5583 5583 5584 5584 5585 5587 5588 5590 5591 5593 5595 5596 5598 5600 5602 5604 5606 5608 5610 5612 5614 5617 5619 5621 5623 5625 5627 5629 5630 5631 5633 5635 5638 5640 5642 5644 5645 5646 5648 5649 5651 5652 5654
5600 5596 5593 5590 5588 5586 5585 5583 5583 5583 5583 5583 5584 5584 5584 5584 5584 5583 5582 5581 5580 5578 5577 5577 5577 5578 5578 5578 5579 5580 5580 5580 5580 5580 5581 5581 5581 5582 5582 5582 5582 5583 5583 5584 5584 5585 5585 5586 5587 5588 5589 5591 5592 5593 5595 5596 5598 5600 5601 5603 5604 5606 5609 5611 5613 5616 5618 5619 5621 5623 5625 5626 5628 5629 5631 5633 5635 5638 5640 5641 5642 5644 5645 5647 5648 5650 5651
5597 5594 5591 5588 5586 5584 5583 5582 5581 5581 5582 5582 5582 5583 5583 5583 5583 5583 5582 5581 5580 5578 5577 5577 5577 5577 5578 5578 5579 5580 5580 5581 5581 5581 5581 5582 5582 5583 5583 5583 5583 5584 5584 5585 5586 5586 5587 5587 5588 5589 5590 5591 5593 5594 5595 5596 5598 5599 5601 5602 5604 5605 5607 5610 5612 5614 5616 5617 5619 5621 5622 5624 5625 5627 5629 5631 5633 5635 5637 5638 5640 5641 5642 5644 5646 5647 5649
5595 5592 5589 5586 5584 5583 5581 5580 5580 5580 5580 5581 5581 5582 5582 5582 5582 5582 5581 5581 5580 5578 5577 5577 5577 5577 5578 5578 5579 5580 5580 5581 5581 5581 5582 5582 5583 5583 5584 5584 5584 5584 5585 5586 5587 5587 5588 5589 5589 5590 5591 5592 5593 5594 5596 5597 5598 5599 5600 5602 5603 5605 5607 5609 5611 5613 5614 5616 5617 5619 5620 5621 5623 5625 5627 5629 5631 5633 5635 5636 5637 5639 5640 5641 5643 5644 5646
5592 5589 5586 5584 5582 5581 5580 5579 5578 5578 5579 5579 5580 5580 5581 5581 5581 5581 5581 5581 5580 5579 5578 5577 5577 5577 5577 5578 5578 5579 5580 5580 5581 5581 5582 5582 5583 5584 5584 5584 5585 5585 5585 5586 5587 5588 5588 5589 5590 5591 5592 5592 5593 5595 5596 5597 5598 5600 5601 5602 5603 5604 5606 5608 5609 5611 5613 5614 5616 5617 5618 5619 5621 5623 5625 5627 5629 5631 5633 5634 5635 5637 5638 5639 5640 5641 5643
5589 5587 5584 5582 5580 5579 5578 5577 5577 5577 5577 5578 5578 5579 5579 5580 5580 5580 5580 5580 5580 5579 5578 5577 5577 5577 5577 5577 5578 5579 5579 5580 5580 5581 5581 5582 5583 5584 5585 5585 5585 5585 5586 5586 5587 5588 5589 5589 5590 5591 5592 5593 5594 5595 5596 5597 5599 5600 5601 5602 5603 5604 5605 5607 5609 5610 5612 5613 5614 5616 5617 5618 5620 5621 5623 5625 5627 5629 5631 5632 5633 5634 5636 5637 5638 5639 5640
5587 5584 5581 5580 5578 5577 5576 5575 5575 5575 5576 5576 5577 5577 5578 5579 5579 5579 5579 5579 5579 5578 5577 5576 5577 5577 5577 5577 5578 5578 5579 5580 5580 5580 5581 5582 5583 5584 5585 5585 5586 5586 5586 5586 5587 5588 5589 5589 5590 5591 5592 5593 5594 5595 5596 5597 5598 5599 5601 5601 5602 5603 5605 5607 5608 5610 5611 5612 5613 5614 5616 5617 5618 5620 5622 5623 5625 5627 5628 5630 5631 5632 5633 5634 5636 5637 5637
5584 5581 5579 5577 5576 5575 5574 5573 5573 5573 5574 5574 5575 5576 5577 5577 5578 5578 5578 5578 5579 5578 5577 5576 5576 5577 5577 5577 5578 5578 5579 5579 5580 5581 5581 5582 5582 5583 5584 5585 5586 5586 5586 5587 5587 5588 5589 5590 5590 5591 5592 5592 5593 5594 5596 5597 5597 5599 5600 5601 5602 5603 5605 5606 5607 5608 5610 5611 5612 5613 5614 5615 5616 5618 5619 5621 5622 5624 5626 5627 5628 5629 5631 5632 5633 5634 5635
5581 5578 5576 5575 5574 5573 5572 5571 5571 5572 5572 5572 5573 5574 5575 5576 5576 5577 5577 5578 5578 5578 5577 5577 5576 5577 5577 5577 5578 5578 5579 5579 5580 5581 5581 5582 5582 5583 5584 5585 5586 5586 5586 5587 5587 5588 5589 5589 5590 5590 5591 5592 5593 5594 5595 5596 5597 5598 5599 5600 5601 5602 5604 5605 5606 5607 5608 5609 5610 5611 5612 5613 5614 5615 5617 5618 5620 5621 5623 5624 5625 5627 5628 5630 5631 5632 5633
5578 5576 5574 5572 5571 5570 5569 5569 5569 5569 5570 5570 5571 5572 5573 5574 5574 5575 5576 5576 5577 5577 5577 5576 5576 5576 5576 5577 5577 5578 5578 5579 5580 5580 5581 5582 5582 5583 5584 5584 5585 5586 5586 5586 5587 5588 5588 5589 5589 5590 5591 5591 5592 5593 5594 5595 5596 5597 5598 5599 5600 5601 5603 5604 5605 5606 5607 5608 5609 5610 5611 5611 5612 5613 5615 5616 5617 5619 5620 5621 5623 5624 5626 5627 5628 5630 5630
5575 5573 5571 5570 5569 5568 5567 5566 5567 5567 5568 5568 5569 5570 5570 5571 5572 5573 5574 5575 5576 5576 5576 5576 5576 5576 5576 5576 5577 5577 5578 5579 5579 5580 5581 5581 5582 5583 5583 5584 5584 5585 5585 5586 5586 5587 5588 5588 5589 5589 5590 5591 5591 5592 5593 5594 5595 5596 5597 5598 5599 5600 5601 5602 5603 5604 5605 5606 5607 5608 5609 5609 5610 5611 5612 5613 5615 5616 5617 5618 5620 5621 5622 5624 5625 5626 5628
5571 5569 5568 5567 5566 5565 5564 5564 5564 5565 5566 5566 5567 5568 5569 5570 5571 5572 5572 5573 5574 5575 5575 5576 5576 5576 5576 5576 5576 5577 5577 5578 5579 5579 5580 5580 5581 5582 5583 5583 5584 5584 5585 5585 5585 5586 5587 5587 5588 5589 5589 5590 5591 5591 5592 5593 5594 5595 5596 5597 5598 5599 5599 5600 5601 5602 5603 5604 5605 5606 5606 5607 5608 5609 5610 5611 5612 5613 5614 5616 5617 5618 5619 5621 5622 5623 5624
5568 5566 5565 5564 5563 5562 5562 5562 5563 5563 5564 5564 5565 5566 5567 5568 5569 5570 5571 5571 5573 5573 5574 5575 5575 5575 5575 5575 5576 5576 5577 5577 5578 5578 5579 5580 5580 5581 5582 5582 5583 5583 5584 5584 5584 5585 5585 5586 5587 5588 5588 5589 5590 5590 5591 5592 5592 5593 5594 5595 5596 5597 5598 5598 5599 5600 5601 5601 5602 5603 5604 5604 5605 5606 5607 5608 5609 5610 5611 5612 5614 5615 5616 5618 5619 5620 5621
5564 5563 5562 5561 5561 5560 5560 5560 5560 5561 5561 5562 5563 5564 5564 5565 5566 5568 5569 5570 5571 5572 5573 5574 5574 5574 5574 5575 5575 5576 5576 5577 5577 5578 5579 5579 5580 5581 5581 5582 5582 5583 5583 5583 5583 5584 5584 5585 5586 5586 5587 5588 5589 5589 5590 5591 5591 5592 5593 5594 5595 5595 5596 5596 5597 5598 5599 5599 5600 5601 5602 5602 5603 5604 5604 5605 5606 5607 5608 5610 5611 5612 5613 5615 5616 5617 5618
5561 5560 5559 5558 5558 5558 5557 5558 5558 5558 5559 5560 5561 5562 5562 5563 5564 5565 5567 5568 5569 5570 5571 5572 5573 5573 5573 5574 5575 5575 5576 5576 5577 5577 5578 5579 5579 5580 5580 5581 5581 5582 5582 5582 5583 5583 5584 5584 5584 5585 5586 5587 5588 5588 5589 5589 5590 5591 5592 5592 5593 5593 5594 5594 5595 5596 5596 5597 5598 5599 5599 5600 5601 5602 5602 5603 5604 5605 5606 5608 5609 5610 5611 5612 5613 5614 5616
5557 5556 5556 5555 5555 5555 5555 5555 5555 5556 5556 5557 5558 5559 5560 5561 5562 5563 5565 5566 5567 5568 5569 5570 5571 5571 5572 5573 5574 5574 5575 5576 5576 5577 5577 5578 5579 5579 5580 5580 5580 5581 5582 5582 5582 5582 5583 5583 5583 5584 5585 5586 5587 5588 5588 5589 5589 5590 5591 5591 5591 5592 5592 5593 5593 5594 5594 5594 5595 5596 5597 5598 5599 5599 5600 5601 5602 5603 5604 5605 5606 5607 5608 5609 5610 5612 5613
5554 5553 5552 5552 5552 5552 5552 5552 5553 5553 5554 5555 5556 5557 5557 5558 5560 5561 5562 5563 5564 5565 5567 5568 5569 5570 5572 5573 5573 5574 5574 5575 5576 5576 5577 5577 5578 5578 5579 5579 5580 5580 5581 5581 5581 5582 5582 5582 5583 5584 5584 5585 5586 5587 5587 5588 5589 5589 5589 5590 5590 5590 5591 5591 5592 5592 5592 5592 5592 5593 5594 5595 5596 5597 5598 5599 5600 5600 5601 5602 5603 5604 5605 5606 5607 5609 5610
5551 5550 5549 5549 5549 5549 5549 5549 5550 5551 5552 5552 5553 5554 5555 5556 5557 5558 5559 5561 5562 5564 5565 5567 5568 5569 5570 5571 5572 5573 5574 5574 5575 5575 5576 5577 5577 5578 5578 5579 5579 5580 5580 5580 5581 5581 5582 5582 5582 5583 5584 5584 5585 5586 5586 5587 5588 5588 5588 5588 5589 5589 5589 5590 5590 5590 5590 5590 5590 5591 5591 5592 5593 5594 5595 5596 5597 5597 5598 5599 5600 5601 5602 5604 5605 5606 5607
5547 5547 5546 5546 5546 5546 5546 5547 5547 5548 5549 5550 5551 5551 5552 5553 5554 5555 5557 5559 5560 5562 5563 5565 5567 5568 5569 5570 5571 5572 5573 5573 5574 5575 5575 5576 5577 5577 5578 5578 5579 5579 5579 5580 5580 5581 5581 5581 5582 5582 5583 5583 5584 5585 5585 5586 5586 5587 5587 5587 5587 5588 5588 5588 5588 5589 5589 5589 5589 5589 5590 5590 5591 5592 5593 5594 5594 5595 5595 5596 5597 5598 5600 5601 5602 5603 5604
5544 5544 5543 5543 5543 5543 5543 5544 5544 5545 5546 5547 5548 5549 5549 5551 5552 5553 5555 5557 5558 5560 5562 5563 5565 5566 5567 5568 5569 5570 5571 5572 5573 5574 5575 5576 5576 5576 5577 5578 5578 5579 5579 5579 5580 5580 5581 5581 5581 5581 5582 5582 5583 5584 5584 5585 5585 5585 5585 5586 5586 5586 5586 5586 5587 5587 5587 5588 5588 5588 5589 5589 5590 5590 5591 5592 5592 5593 5594 5594 5595 5596 5597 5598 5600 5601 5602
5541 5540 5540 5540 5540 5540 5541 5541 5542 5542 5543 5544 5545 5546 5547 5549 5550 5552 5553 5555 5556 5558 5560 5561 5563 5564 5566 5567 5568 5569 5570 5571 5572 5573 5574 5574 5575 5575 5576 5577 5577 5578 5578 5579 5580 5580 5580 5580 5580 5581 5581 5582 5582 5583 5583 5583 5584 5584 5584 5584 5584 5585 5585 5585 5585 5585 5586 5586 5587 5587 5587 5588 5588 5589 5589 5590 5590 5591 5592 5592 5593 5594 5595 5596 5597 5598 5599
5537 5537 5537 5537 5537 5537 5538 5538 5539 5540 5541 5542 5543 5544 5546 5547 5549 5550 5551 5553 5554 5556 5558 5559 5561 5562 5563 5565 5566 5567 5568 5569 5570 5571 5572 5573 5573 5574 5574 5575 5576 5577 5578 5578 5579 5579 5580 5580 5580 5580 5581 5581 5582 5582 5582 5583 5583 5583 5583 5583 5583 5584 5584 5584 5584 5584 5584 5585 5585 5586 5586 5586 5587 5587 5587 5588 5588 5589 5589 5590 5591 5592 5592 5593 5594 5595 5596
5534 5534 5534 5534 5534 5534 5535 5535 5536 5537 5538 5540 5541 5542 5543 5545 5546 5548 5549 5551 5553 5554 5556 5557 5559 5560 5562 5563 5564 5565 5566 5567 5569 5570 5570 5571 5572 5572 5573 5574 5575 5576 5577 5578 5578 5579 5579 5579 5579 5580 5580 5580 5581 5581 5582 5582 5582 5582 5582 5582 5582 5583 5583 5583 5583 5583 5583 5583 5584 5584 5584 5585 5585 5585 5586 5586 5586 5587 5587 5588 5588 5589 5590 5591 5592 5592 5593
5531 5531 5530 5531 5531 5531 5532 5532 5533 5535 5536 5537 5539 5540 5541 5543 5544 5545 5547 5549 5550 5552 5553 5555 5556 5558 5559 5561 5562 5563 5564 5565 5567 5568 5568 5569 5570 5570 5571 5572 5573 5574 5576 5577 5577 5578 5578 5578 5579 5579 5579 5580 5580 5581 5581 5582 5582 5582 5582 5582 5581 5581 5582 5582 5582 5583 5583 5583 5583 5583 5583 5584 5584 5584 5584 5585 5585 5585 5586 5586 5586 5587 5587 5588 5589 5589 5590
5527 5527 5527 5527 5528 5528 5529 5530 5531 5532 5534 5535 5536 5538 5539 5540 5541 5543 5545 5546 5548 5549 5551 5552 5554 5555 5557 5558 5560 5561 5562 5563 5564 5566 5566 5567 5568 5569 5569 5570 5571 5572 5574 5575 5575 5576 5577 5577 5577 5577 5578 5578 5579 5579 5580 5581 5581 5581 5581 5581 5581 5581 5581 5581 5581 5582 5582 5582 5582 5582 5582 5583 5583 5583 5583 5583 5583 5583 5584 5584 5584 5585 5585 5585 5586 5586 5587
5524 5524 5524 5524 5525 5526 5527 5528 5529 5530 5532 5533 5534 5535 5536 5538 5539 5540 5542 5543 5545 5547 5548 5550 5551 5553 5554 5556 5558 5559 5560 5561 5562 5563 5564 5565 5566 5567 5568 5568 5569 5570 5572 5573 5573 5574 5575 5575 5575 5576 5576 5577 5577 5578 5578 5579 5579 5580 5580 5580 5580 5580 5581 5581 5581 5581 5581 5581 5582 5581 5582 5582 5582 5582 5582 5582 5582 5582 5582 5582 5582 5582 5583 5583 5583 5584 5584
5521 5521 5521 5522 5522 5523 5524 5525 5526 5528 5529 5531 5531 5532 5534 5535 5536 5538 5539 5541 5542 5544 5546 5547 5549 5550 5552 5554 5556 5557 5558 5559 5560 5561 5562 5563 5565 5566 5566 5567 5567 5569 5570 5571 5572 5573 5573 5573 5574 5574 5575 5575 5575 5576 5576 5577 5577 5578 5578 5578 5579 5579 5580 5580 5580 5580 5580 5581 5581 5581 5581 5581 5581 5581 5581 5581 5581 5581 5581 5580 5580 5580 5580 5580 5580 5581 5581
5517 5518 5518 5519 5520 5521 5522 5523 5525 5526 5527 5528 5529 5530 5531 5532 5534 5535 5537 5538 5540 5542 5543 5545 5547 5548 5550 5551 5553 5555 5556 5556 5557 5558 5560 5562 5563 5564 5565 5565 5566 5567 5569 5570 5571 5571 5572 5572 5572 5573 5573 5574 5574 5574 5575 5575 5575 5576 5576 5576 5577 5578 5578 5579 5579 5579 5579 5579 5580 5580 5580 5580 5580 5580 5580 5580 5580 5580 5580 5579 5579 5579 5579 5578 5578 5578 5578